Temp
14 14 15 15 15 15 15 15 15 15 14 14 14 14 13 13 13 12 12 11 11 10 10 10 11 11 10 9 9 8 8 9 9 9 9 9 9 9 9 9 9 9 9 9 9 9 9 10 9 9 8 8 7 7 7 7 7 7 6 6 6 6 6 6 5 5 5 5 5
14 14 14 14 15 15 15 15 15 14 14 14 14 14 13 13 13 12 12 11 11 10 10 10 10 10 10 9 8 8 8 9 9 9 9 9 9 9 8 8 8 8 8 8 8 9 9 9 9 8 8 7 7 7 7 6 6 6 6 6 6 6 5 5 5 5 5 5 4
14 14 14 14 14 15 15 15 14 14 14 14 13 13 13 13 12 12 12 11 10 10 10 10 10 9 9 8 8 8 8 8 8 8 9 9 9 8 8 8 8 8 8 8 8 9 9 9 9 8 7 7 7 6 6 6 6 6 6 6 6 5 5 5 5 5 4 4 4
14 14 14 14 14 15 15 15 15 14 14 14 13 13 12 12 12 11 11 11 10 9 9 10 9 9 8 8 7 7 8 8 8 8 8 8 8 8 8 8 8 8 8 8 9 9 9 8 8 8 7 7 6 6 6 6 6 6 6 6 5 5 5 5 5 4 4 4 4
14 14 14 14 14 14 15 15 15 14 14 13 13 12 12 12 11 11 11 10 9 9 9 9 9 8 7 7 7 7 7 8 8 8 8 8 8 8 8 8 8 8 8 8 9 9 8 8 8 7 7 6 6 6 6 6 6 6 5 5 5 5 5 5 4 4 4 4 4
14 14 14 14 14 14 14 14 14 14 14 13 13 12 12 12 11 11 10 10 9 9 9 9 8 8 7 7 7 7 7 7 8 8 8 8 8 8 7 7 8 8 8 8 8 8 8 8 7 7 6 6 6 6 6 6 6 5 5 5 5 5 4 4 4 4 4 4 4
14 14 13 13 13 14 14 14 14 14 13 13 12 12 12 12 11 11 10 10 9 8 8 8 8 7 7 7 7 7 7 7 7 8 8 7 7 7 7 7 7 8 8 8 8 8 8 7 7 6 6 6 6 6 6 6 5 5 5 5 5 4 4 4 4 4 4 4 3
14 13 13 13 13 13 13 13 13 13 13 12 12 12 12 12 11 11 10 9 9 8 8 7 7 7 6 6 7 7 7 7 7 7 7 7 7 7 7 7 7 7 8 8 8 7 7 7 6 6 6 6 6 6 5 5 5 5 5 5 4 4 4 4 4 4 3 3 3
13 13 13 13 13 13 13 13 13 12 12 12 12 12 12 11 11 10 10 9 8 8 8 7 7 6 6 6 7 7 7 7 7 7 7 7 7 7 7 7 7 7 8 8 7 7 7 6 6 6 6 6 6 5 5 5 5 5 4 4 4 4 4 4 3 3 3 3 3
13 13 13 13 13 13 12 12 11 11 11 11 11 11 11 11 10 10 9 9 8 8 7 7 6 6 6 6 7 7 7 7 7 7 7 7 7 7 7 7 7 7 7 7 7 7 6 6 6 6 6 5 5 5 5 5 5 4 4 4 4 4 3 3 3 3 3 3 3
13 13 13 13 13 12 11 10 10 10 11 11 11 11 10 10 10 9 9 8 8 8 7 7 6 6 6 6 6 6 7 7 7 7 7 6 7 7 7 7 7 7 7 7 7 6 6 6 6 6 5 5 5 5 5 4 4 4 4 4 4 3 3 3 3 3 3 3 3
13 13 12 12 12 11 10 10 10 10 10 10 10 10 10 9 9 8 8 7 7 7 7 6 6 6 6 6 6 6 6 6 6 6 6 6 6 6 7 7 7 7 7 7 6 6 6 6 5 5 5 5 5 5 4 4 4 4 4 4 3 3 3 3 3 3 3 3 2
12 12 12 12 11 10 10 9 10 10 10 10 10 9 9 8 8 7 7 7 7 7 7 6 6 6 6 6 6 6 6 6 6 6 6 6 6 6 7 7 7 7 7 6 6 6 6 5 5 5 5 5 5 4 4 4 4 4 4 3 3 3 3 3 3 2 2 2 2
12 12 12 11 10 10 9 9 10 10 10 9 9 9 8 8 7 7 7 7 7 7 7 6 6 6 6 6 6 6 6 6 6 6 6 6 6 6 7 7 7 6 6 6 6 6 5 5 5 5 5 5 4 4 4 4 4 3 3 3 3 3 3 2 2 2 2 2 2
11 11 11 10 10 9 9 9 9 9 9 9 8 8 8 7 7 7 7 7 7 7 7 6 6 6 6 6 6 6 6 6 6 6 6 6 6 6 7 6 6 6 6 6 5 5 5 5 5 5 5 4 4 4 4 4 3 3 3 3 3 3 2 2 2 2 2 2 2
11 10 10 9 9 9 9 9 9 9 8 8 8 7 7 7 7 7 7 7 7 7 7 6 6 6 6 6 6 6 6 6 6 6 6 6 6 6 6 6 6 6 5 5 5 5 5 5 5 4 4 4 4 4 3 3 3 3 3 3 2 2 2 2 2 2 2 2 1
10 9 9 9 9 8 8 9 8 8 8 8 7 7 7 7 7 7 7 7 7 7 6 6 6 6 6 6 6 6 6 6 6 6 6 6 6 6 6 6 6 5 5 5 5 5 5 4 4 4 4 4 3 3 3 3 3 3 2 2 2 2 2 2 2 2 1 1 1
9 9 9 8 8 8 8 8 8 8 7 7 7 7 7 7 7 7 6 7 7 7 7 6 6 6 5 5 5 5 5 5 6 6 6 6 6 6 6 5 5 5 5 5 5 4 4 4 4 4 4 3 3 3 3 3 2 2 2 2 2 2 2 2 2 1 1 1 1
8 8 8 8 8 8 8 8 8 7 7 7 7 7 7 7 7 7 6 6 6 7 6 6 6 5 5 5 5 5 5 5 6 6 6 6 6 6 5 5 5 5 5 5 4 4 4 4 4 4 3 3 3 3 3 2 2 2 2 2 2 2 2 1 1 1 1 1 1
8 8 8 8 7 8 7 7 7 7 7 7 7 7 7 7 7 7 6 6 6 6 6 6 5 5 5 5 5 5 5 5 6 6 6 6 6 5 5 5 5 5 5 4 4 4 4 4 3 3 3 3 3 3 2 2 2 2 2 2 2 2 1 1 1 1 1 0 0
8 8 7 7 7 7 7 7 6 6 6 6 6 6 7 7 6 6 6 6 6 6 5 5 5 5 5 5 5 5 5 5 6 6 6 6 5 5 5 5 5 4 4 4 4 4 4 3 3 3 3 3 2 2 2 2 2 2 2 2 2 1 1 1 1 0 0 0 -0
7 7 7 6 6 6 6 6 6 6 5 5 6 6 6 6 6 5 5 5 5 5 5 5 4 4 5 5 5 5 6 6 5 5 5 5 5 5 5 5 4 4 4 4 4 4 3 3 3 3 2 2 2 2 2 2 2 2 2 1 1 1 1 1 0 0 -0 -0 -0
7 6 6 6 5 5 5 5 5 5 5 5 5 6 6 6 5 5 5 5 5 5 4 4 4 5 5 5 5 6 6 6 5 5 5 5 5 5 5 4 4 4 4 4 3 3 3 3 3 2 2 2 2 2 2 2 2 2 1 1 1 1 0 0 0 -0 -0 -0 -0
6 6 5 5 5 5 5 5 5 5 5 5 5 6 6 5 5 4 4 4 4 4 4 4 4 5 5 5 5 6 6 5 5 5 5 5 5 4 4 4 4 4 4 3 3 3 2 2 2 2 2 2 2 2 2 2 2 1 1 1 1 1 0 0 0 -0 -0 -0 -1
5 5 5 5 5 5 5 5 5 5 4 5 5 5 5 5 4 4 4 4 4 4 4 4 5 5 5 5 5 5 5 5 5 5 5 5 4 4 4 4 4 3 3 3 3 2 2 2 2 2 2 2 2 2 2 1 1 1 1 1 1 1 0 0 0 -0 -0 -0 -1
5 5 5 4 5 5 5 5 4 4 4 5 5 5 5 4 4 4 4 3 4 4 4 5 5 5 5 5 5 5 5 5 5 5 5 4 4 4 3 3 3 3 3 2 2 2 2 2 2 2 2 2 2 2 1 1 1 1 1 1 1 0 0 0 0 0 -0 -0 -1
5 4 4 4 4 4 4 4 4 4 4 4 5 4 4 3 3 3 3 4 4 4 5 5 5 5 5 5 5 5 4 4 4 4 4 4 4 3 3 3 3 2 2 2 2 1 1 1 1 1 2 2 2 2 1 1 1 1 1 1 0 0 0 0 0 0 -0 -1 -1
4 4 4 4 4 4 4 3 4 4 4 4 4 4 3 3 3 4 4 4 4 5 5 5 4 4 4 4 4 4 4 4 4 4 4 3 3 3 3 3 2 2 1 1 1 1 1 1 1 1 2 2 2 1 1 1 1 1 1 0 0 0 0 0 0 -0 -0 -1 -1
4 4 4 4 4 3 3 3 3 3 3 3 3 3 3 3 4 4 4 4 4 4 4 4 4 4 4 4 4 4 4 4 4 4 3 3 3 2 2 2 2 1 1 1 1 1 1 1 1 1 2 2 1 1 1 1 1 1 1 0 0 0 0 -0 -0 -1 -1 -1 -2
4 4 4 4 4 3 3 3 3 3 2 2 2 3 3 3 4 4 4 4 4 4 4 4 4 4 4 4 4 4 4 4 3 3 3 3 2 2 2 2 1 1 1 1 1 1 1 1 1 1 1 1 1 1 1 1 1 1 0 0 0 0 -0 -0 -1 -1 -1 -2 -2
4 4 4 4 3 3 3 3 2 2 2 2 2 3 3 3 4 4 4 4 4 4 4 4 4 4 4 4 4 4 4 3 3 3 3 3 2 2 2 1 1 1 1 0 1 1 1 1 1 1 1 1 1 1 1 1 0 0 0 0 0 -0 -0 -1 -1 -1 -2 -2 -3
3 3 3 3 3 3 2 2 2 2 2 2 3 3 3 4 4 3 3 4 4 4 4 4 4 4 4 4 4 4 3 3 3 3 3 3 2 2 1 1 1 1 0 1 1 1 1 1 1 1 1 1 1 1 0 0 0 0 0 -0 -0 -0 -1 -1 -1 -2 -2 -3 -3
2 2 2 2 2 2 2 2 2 2 2 3 3 3 3 3 3 3 3 4 4 4 4 4 4 4 4 4 4 3 3 3 3 3 3 2 2 1 1 1 0 0 0 1 1 1 1 1 1 1 1 1 1 0 0 0 0 0 -0 -0 -1 -1 -1 -2 -2 -2 -3 -3 -4
1 2 2 1 1 1 1 1 2 2 3 3 3 3 3 3 3 3 3 4 4 4 4 4 4 4 4 3 3 3 3 3 3 2 2 2 1 1 1 0 0 0 1 1 1 1 1 1 1 1 1 1 0 0 0 0 -0 -0 -0 -1 -1 -1 -2 -2 -2 -3 -3 -4 -4
1 1 1 1 1 1 1 1 2 2 3 3 3 3 2 2 3 3 4 4 4 4 4 4 3 3 3 3 3 3 3 2 2 2 1 1 1 0 0 0 0 1 1 1 1 1 1 0 0 0 0 0 0 0 0 -0 -0 -0 -1 -1 -1 -2 -2 -2 -3 -3 -4 -4 -5
0 0 0 -0 -0 0 1 1 2 2 3 3 2 2 2 3 3 3 4 4 4 4 4 3 3 3 3 3 3 3 2 2 1 1 1 1 0 0 0 0 1 1 1 1 1 0 0 0 0 0 0 0 0 -0 -0 -0 -0 -1 -1 -1 -2 -2 -2 -3 -3 -4 -4 -5 -5
-1 -1 -1 -1 -0 0 1 1 2 2 2 2 2 2 2 3 3 3 3 3 4 4 3 3 3 3 3 3 3 2 2 1 1 1 0 0 0 0 0 1 1 1 0 0 0 -0 -0 -0 -0 -0 0 0 0 -0 -0 -1 -1 -1 -1 -1 -2 -2 -2 -3 -3 -4 -4 -5 -5
-2 -2 -2 -1 -1 -0 0 1 1 1 1 2 2 2 3 3 3 3 3 3 3 3 3 3 3 3 3 2 2 2 1 1 1 0 -0 -0 0 0 0 0 0 0 0 -0 -0 -0 -0 -0 -0 -0 -0 -0 -0 -0 -1 -1 -1 -1 -2 -2 -2 -3 -3 -3 -4 -4 -5 -5 -5
-2 -2 -2 -2 -1 -1 0 1 1 1 1 2 2 3 3 3 3 3 3 3 3 3 3 3 3 3 2 2 2 1 1 1 0 -0 -0 -0 -0 0 0 0 0 -0 -0 -0 -0 -0 -0 -1 -1 -0 -0 -0 -1 -1 -1 -1 -1 -2 -2 -2 -3 -3 -3 -4 -4 -4 -5 -5 -5
-3 -3 -2 -2 -1 -0 0 0 1 1 2 2 2 3 3 3 3 3 3 3 3 3 3 3 3 2 2 2 2 1 0 0 -0 -0 -0 -0 -0 -0 -0 -0 -0 -0 -1 -1 -1 -1 -1 -1 -1 -1 -1 -1 -1 -1 -1 -2 -2 -2 -2 -3 -3 -3 -4 -4 -4 -5 -5 -5 -6
-2 -2 -1 -1 -0 0 0 0 1 1 2 2 2 3 3 3 3 3 3 3 3 3 3 3 2 2 2 1 1 0 -0 -0 -0 -0 -0 -0 -0 -0 -0 -0 -0 -1 -1 -1 -1 -1 -1 -1 -1 -1 -1 -1 -1 -2 -2 -2 -2 -3 -3 -3 -4 -4 -4 -4 -5 -5 -5 -5 -6
Height
1450 1452 1454 1456 1457 1458 1459 1460 1461 1462 1463 1463 1464 1465 1466 1467 1468 1470 1470 1471 1473 1474 1476 1478 1480 1482 1483 1484 1486 1488 1491 1493 1494 1496 1498 1499 1500 1502 1503 1504 1505 1504 1504 1503 1503 1504 1505 1506 1506 1506 1506 1506 1506 1506 1505 1505 1504 1504 1504 1504 1503 1503 1503 1503 1503 1503 1502 1502 1502
1449 1451 1453 1455 1456 1457 1458 1459 1460 1461 1462 1462 1463 1464 1465 1466 1468 1468 1469 1470 1471 1473 1475 1478 1479 1481 1482 1483 1485 1488 1489 1491 1493 1494 1496 1497 1498 1500 1501 1502 1503 1504 1504 1503 1503 1503 1504 1505 1505 1505 1505 1505 1505 1504 1504 1504 1503 1503 1503 1503 1503 1503 1502 1502 1502 1502 1501 1501 1501
1448 1450 1452 1453 1454 1456 1457 1458 1458 1459 1460 1461 1462 1463 1464 1465 1466 1467 1468 1469 1471 1473 1475 1477 1478 1480 1481 1482 1484 1487 1488 1490 1492 1493 1494 1496 1497 1498 1499 1500 1502 1503 1503 1503 1503 1503 1503 1503 1503 1503 1503 1503 1503 1503 1503 1503 1503 1503 1503 1502 1502 1502 1501 1501 1501 1501 1501 1501 1500
1447 1449 1450 1451 1453 1454 1455 1456 1457 1458 1459 1460 1461 1462 1463 1464 1465 1466 1467 1468 1470 1472 1474 1476 1477 1478 1480 1482 1484 1486 1488 1489 1490 1492 1493 1494 1495 1496 1497 1499 1500 1502 1502 1502 1502 1503 1502 1502 1503 1503 1503 1503 1502 1502 1502 1502 1502 1502 1502 1501 1501 1501 1501 1500 1500 1500 1500 1500 1500
1446 1448 1449 1450 1451 1453 1454 1455 1456 1457 1458 1458 1459 1461 1462 1463 1464 1465 1466 1468 1469 1472 1473 1475 1476 1477 1479 1481 1483 1485 1486 1488 1490 1491 1492 1493 1494 1495 1497 1498 1500 1501 1501 1501 1501 1501 1501 1501 1501 1502 1502 1502 1502 1501 1501 1501 1501 1501 1501 1500 1500 1500 1500 1499 1499 1499 1499 1499 1499
1445 1446 1448 1449 1450 1452 1453 1453 1454 1455 1456 1457 1458 1459 1460 1462 1463 1464 1465 1467 1469 1471 1473 1473 1475 1476 1478 1480 1482 1483 1485 1487 1488 1490 1492 1493 1494 1495 1496 1498 1499 1499 1500 1500 1500 1500 1500 1500 1500 1501 1501 1501 1501 1501 1501 1500 1500 1500 1499 1499 1499 1499 1499 1499 1499 1499 1498 1498 1498
1443 1445 1446 1448 1449 1450 1451 1452 1453 1453 1454 1455 1457 1458 1459 1460 1461 1463 1464 1466 1468 1470 1471 1472 1473 1475 1477 1478 1480 1482 1483 1485 1487 1489 1490 1492 1493 1494 1496 1497 1498 1498 1498 1499 1498 1499 1499 1499 1499 1500 1500 1500 1500 1500 1499 1499 1499 1499 1498 1498 1498 1498 1498 1498 1498 1498 1498 1497 1497
1442 1443 1444 1446 1447 1448 1449 1450 1451 1452 1453 1454 1456 1457 1458 1459 1460 1462 1464 1466 1468 1469 1470 1471 1472 1474 1475 1477 1478 1480 1482 1484 1485 1487 1488 1490 1492 1494 1496 1497 1497 1497 1498 1498 1498 1498 1498 1498 1498 1499 1499 1499 1499 1498 1498 1498 1498 1498 1498 1497 1497 1497 1497 1497 1497 1497 1497 1496 1496
1440 1442 1443 1444 1446 1447 1447 1448 1448 1450 1451 1453 1455 1456 1457 1458 1460 1461 1463 1465 1466 1468 1469 1470 1472 1473 1475 1476 1478 1479 1481 1482 1483 1485 1487 1489 1491 1493 1494 1495 1496 1496 1497 1497 1497 1497 1497 1497 1498 1498 1498 1498 1498 1498 1497 1497 1497 1497 1496 1496 1496 1496 1496 1496 1496 1496 1495 1495 1495
1438 1440 1441 1443 1444 1445 1445 1446 1447 1449 1451 1453 1454 1455 1456 1458 1459 1461 1462 1463 1465 1467 1468 1469 1471 1472 1474 1476 1477 1479 1480 1481 1483 1484 1486 1488 1490 1492 1493 1494 1495 1495 1495 1496 1496 1496 1496 1496 1497 1497 1497 1497 1497 1497 1496 1496 1496 1496 1495 1495 1495 1495 1495 1495 1495 1494 1494 1494 1493
1437 1438 1439 1441 1442 1443 1443 1444 1447 1449 1451 1452 1453 1454 1456 1457 1459 1460 1462 1463 1464 1465 1467 1468 1470 1472 1474 1476 1478 1479 1480 1481 1483 1484 1487 1488 1489 1491 1492 1493 1494 1494 1494 1495 1495 1495 1495 1495 1496 1496 1496 1496 1496 1496 1496 1495 1495 1495 1495 1494 1494 1494 1494 1493 1493 1493 1493 1492 1492
1435 1436 1438 1439 1440 1440 1442 1443 1446 1448 1449 1450 1452 1453 1455 1457 1458 1459 1461 1462 1463 1464 1466 1468 1470 1472 1474 1476 1477 1479 1480 1482 1483 1485 1486 1488 1488 1490 1491 1493 1493 1493 1493 1494 1494 1494 1494 1495 1495 1495 1495 1495 1495 1495 1495 1495 1494 1494 1494 1494 1493 1493 1493 1493 1492 1492 1491 1491 1491
1433 1435 1436 1437 1438 1439 1441 1443 1445 1447 1448 1449 1451 1453 1454 1456 1457 1458 1459 1461 1462 1464 1466 1468 1470 1472 1473 1475 1477 1478 1480 1482 1483 1484 1485 1487 1488 1489 1491 1491 1492 1492 1493 1493 1493 1493 1494 1494 1494 1494 1494 1494 1494 1494 1494 1494 1493 1493 1493 1493 1493 1492 1492 1492 1491 1491 1490 1490 1489
1432 1433 1434 1435 1436 1438 1440 1443 1444 1445 1447 1448 1450 1451 1453 1454 1455 1457 1458 1460 1461 1463 1465 1467 1469 1471 1473 1474 1476 1478 1480 1482 1483 1484 1484 1486 1488 1489 1490 1490 1491 1491 1492 1492 1493 1493 1493 1493 1493 1493 1493 1493 1493 1493 1493 1493 1493 1492 1492 1492 1491 1491 1491 1490 1490 1489 1489 1488 1488
1430 1431 1432 1433 1435 1437 1439 1441 1443 1444 1445 1447 1448 1450 1452 1453 1454 1455 1457 1459 1460 1462 1463 1465 1468 1470 1472 1474 1476 1478 1480 1481 1482 1483 1485 1487 1488 1488 1489 1489 1490 1490 1491 1492 1492 1492 1493 1493 1493 1493 1493 1492 1492 1492 1492 1492 1491 1491 1491 1490 1490 1490 1489 1489 1488 1488 1488 1487 1487
1428 1429 1431 1432 1434 1436 1438 1439 1440 1442 1444 1446 1447 1449 1450 1451 1453 1454 1456 1458 1459 1460 1462 1464 1466 1469 1471 1473 1476 1478 1479 1481 1482 1483 1485 1486 1487 1488 1488 1489 1489 1490 1490 1491 1491 1492 1492 1492 1492 1492 1492 1491 1491 1491 1491 1490 1490 1490 1489 1489 1489 1488 1488 1488 1487 1487 1486 1486 1485
1427 1428 1429 1431 1433 1434 1436 1437 1438 1440 1442 1444 1446 1448 1449 1450 1451 1453 1455 1456 1458 1459 1461 1463 1466 1468 1470 1473 1475 1477 1478 1480 1482 1483 1485 1486 1486 1487 1488 1488 1489 1489 1490 1490 1491 1491 1491 1491 1491 1491 1491 1490 1490 1490 1489 1489 1489 1489 1488 1488 1488 1487 1487 1486 1486 1485 1485 1484 1483
1426 1428 1429 1431 1432 1433 1434 1435 1437 1439 1441 1443 1445 1447 1448 1449 1450 1452 1453 1455 1457 1458 1460 1463 1465 1468 1469 1472 1474 1476 1478 1479 1481 1483 1484 1485 1486 1486 1487 1488 1488 1489 1489 1490 1490 1490 1490 1490 1490 1490 1490 1489 1489 1489 1489 1488 1488 1488 1488 1487 1487 1486 1486 1485 1484 1484 1483 1483 1482
1426 1428 1430 1431 1432 1432 1433 1434 1436 1438 1440 1443 1444 1446 1448 1449 1450 1452 1453 1454 1456 1458 1460 1463 1465 1468 1469 1471 1473 1475 1478 1479 1481 1482 1483 1484 1485 1486 1487 1487 1488 1488 1489 1489 1489 1489 1489 1489 1489 1489 1489 1489 1488 1488 1488 1488 1487 1487 1487 1486 1485 1485 1484 1483 1483 1482 1482 1481 1480
1427 1428 1429 1430 1431 1431 1432 1433 1435 1438 1440 1443 1444 1446 1448 1449 1451 1452 1453 1454 1456 1459 1461 1463 1466 1468 1470 1472 1473 1475 1477 1479 1480 1481 1482 1483 1484 1485 1486 1487 1488 1488 1488 1488 1488 1488 1488 1488 1488 1488 1488 1488 1488 1487 1487 1487 1486 1486 1485 1485 1484 1483 1483 1482 1482 1481 1480 1479 1479
1427 1428 1428 1429 1430 1431 1432 1433 1436 1438 1440 1443 1445 1446 1448 1450 1451 1453 1454 1455 1458 1460 1463 1465 1467 1468 1470 1472 1474 1475 1477 1478 1479 1480 1481 1482 1483 1484 1485 1486 1487 1487 1487 1488 1488 1488 1488 1488 1488 1488 1487 1487 1487 1486 1486 1485 1485 1484 1484 1483 1483 1482 1481 1481 1480 1479 1479 1478 1478
1426 1427 1427 1428 1429 1430 1432 1433 1436 1438 1441 1443 1445 1447 1448 1450 1452 1453 1455 1457 1460 1462 1465 1467 1469 1470 1472 1473 1474 1475 1477 1478 1479 1479 1480 1482 1483 1484 1485 1485 1486 1486 1487 1487 1487 1487 1487 1487 1487 1486 1486 1486 1485 1485 1484 1484 1483 1483 1482 1482 1481 1481 1480 1479 1479 1478 1477 1477 1476
1425 1425 1427 1428 1429 1430 1432 1433 1436 1438 1440 1442 1444 1446 1448 1450 1452 1454 1456 1459 1461 1463 1466 1468 1470 1472 1473 1473 1474 1475 1477 1477 1478 1479 1480 1481 1482 1483 1484 1484 1485 1485 1486 1486 1486 1486 1486 1486 1486 1485 1485 1485 1484 1484 1483 1483 1482 1482 1481 1480 1480 1479 1478 1478 1477 1477 1476 1475 1474
1423 1424 1426 1427 1428 1430 1431 1433 1436 1438 1440 1442 1443 1445 1447 1449 1451 1454 1457 1459 1461 1464 1466 1468 1470 1472 1473 1474 1475 1476 1477 1477 1478 1479 1480 1481 1482 1482 1483 1483 1484 1485 1485 1485 1485 1485 1485 1485 1485 1484 1484 1483 1483 1483 1482 1481 1481 1480 1479 1479 1478 1478 1477 1477 1476 1475 1475 1474 1473
1423 1424 1426 1427 1428 1429 1431 1433 1435 1437 1439 1441 1442 1444 1446 1448 1451 1453 1456 1458 1461 1463 1466 1468 1470 1471 1473 1474 1476 1477 1478 1478 1478 1479 1479 1480 1481 1481 1482 1483 1483 1484 1484 1484 1484 1484 1484 1484 1484 1483 1483 1482 1482 1481 1481 1480 1479 1479 1478 1478 1477 1477 1476 1475 1475 1474 1473 1473 1472
1423 1424 1425 1426 1428 1429 1431 1433 1435 1437 1438 1440 1441 1443 1445 1448 1450 1453 1455 1458 1460 1463 1465 1468 1469 1471 1473 1474 1476 1477 1477 1478 1478 1479 1479 1480 1480 1481 1481 1482 1483 1483 1483 1483 1483 1483 1483 1483 1483 1482 1482 1481 1481 1480 1479 1479 1478 1478 1477 1476 1476 1475 1474 1474 1473 1472 1472 1471 1470
1423 1423 1425 1426 1427 1429 1431 1433 1435 1437 1438 1440 1441 1443 1445 1447 1450 1452 1455 1457 1460 1463 1465 1468 1469 1471 1473 1474 1475 1476 1477 1477 1478 1478 1479 1479 1480 1480 1481 1482 1482 1483 1483 1483 1483 1483 1482 1482 1481 1481 1481 1480 1479 1479 1478 1478 1477 1476 1475 1475 1474 1473 1473 1472 1471 1471 1470 1469 1468
1422 1423 1424 1426 1427 1429 1431 1434 1436 1438 1439 1440 1441 1443 1445 1447 1449 1452 1455 1457 1460 1462 1465 1467 1470 1472 1473 1474 1475 1475 1476 1477 1478 1478 1478 1479 1479 1480 1480 1481 1481 1482 1482 1482 1482 1481 1481 1480 1480 1480 1479 1479 1478 1478 1477 1476 1475 1475 1474 1473 1473 1472 1471 1470 1469 1469 1468 1467 1466
1421 1422 1423 1425 1427 1429 1432 1434 1436 1438 1439 1441 1442 1443 1445 1447 1450 1453 1455 1458 1460 1462 1465 1467 1469 1471 1472 1473 1474 1475 1476 1477 1477 1478 1478 1479 1479 1479 1480 1480 1480 1481 1481 1481 1480 1480 1480 1479 1479 1478 1478 1477 1477 1476 1475 1475 1474 1473 1473 1472 1471 1470 1469 1468 1468 1467 1466 1465 1464
1420 1421 1423 1425 1427 1430 1432 1434 1436 1438 1440 1441 1443 1444 1447 1449 1451 1453 1456 1458 1460 1463 1465 1468 1469 1471 1472 1473 1473 1474 1475 1476 1477 1477 1478 1478 1478 1479 1479 1479 1479 1480 1480 1479 1479 1479 1478 1478 1477 1477 1476 1475 1475 1474 1474 1473 1472 1472 1471 1470 1469 1468 1468 1467 1466 1465 1464 1463 1463
1420 1421 1423 1425 1427 1429 1432 1433 1436 1438 1440 1442 1444 1446 1448 1451 1453 1455 1456 1458 1461 1463 1466 1468 1469 1470 1471 1472 1473 1474 1475 1475 1476 1476 1477 1477 1478 1478 1478 1478 1479 1478 1478 1478 1478 1477 1477 1476 1476 1475 1474 1474 1473 1473 1472 1471 1471 1470 1469 1468 1468 1467 1466 1465 1464 1463 1462 1462 1461
1420 1421 1423 1425 1427 1429 1431 1433 1435 1438 1440 1443 1445 1448 1450 1452 1454 1456 1458 1460 1463 1465 1466 1468 1468 1469 1470 1472 1473 1473 1474 1475 1475 1475 1476 1476 1477 1477 1478 1478 1478 1478 1477 1477 1477 1476 1475 1475 1474 1474 1473 1473 1472 1471 1471 1470 1469 1468 1468 1467 1466 1465 1464 1463 1463 1462 1461 1460 1459
1420 1422 1424 1426 1427 1429 1431 1433 1435 1438 1440 1443 1446 1448 1450 1453 1455 1457 1460 1462 1464 1465 1466 1467 1468 1469 1470 1471 1472 1473 1473 1474 1474 1474 1475 1475 1476 1477 1477 1477 1477 1476 1476 1476 1475 1475 1474 1473 1473 1472 1472 1471 1470 1470 1469 1468 1468 1467 1466 1465 1464 1463 1463 1462 1461 1460 1459 1458 1458
1421 1423 1424 1426 1428 1429 1431 1433 1435 1438 1440 1443 1446 1449 1452 1454 1457 1459 1461 1463 1465 1466 1467 1467 1468 1469 1470 1471 1472 1472 1473 1473 1473 1473 1474 1475 1475 1476 1476 1476 1476 1475 1475 1474 1474 1473 1473 1472 1471 1471 1470 1469 1469 1468 1468 1467 1466 1465 1464 1464 1463 1462 1461 1460 1459 1458 1458 1457 1457
1422 1423 1425 1426 1428 1429 1431 1433 1436 1438 1441 1444 1447 1450 1453 1456 1458 1460 1462 1463 1464 1465 1466 1467 1468 1469 1469 1470 1471 1471 1472 1472 1473 1473 1473 1474 1474 1474 1474 1475 1474 1474 1474 1473 1472 1472 1471 1470 1470 1469 1468 1468 1467 1467 1466 1465 1464 1464 1463 1462 1461 1460 1459 1458 1458 1457 1456 1456 1455
1423 1424 1425 1427 1428 1430 1432 1434 1437 1440 1443 1445 1448 1451 1454 1457 1459 1461 1462 1463 1464 1465 1466 1467 1468 1468 1469 1469 1470 1471 1471 1472 1472 1473 1473 1473 1473 1473 1473 1473 1473 1473 1472 1472 1471 1470 1469 1469 1468 1468 1467 1466 1466 1465 1464 1464 1463 1462 1461 1460 1460 1459 1458 1457 1457 1456 1455 1455 1454
1424 1425 1426 1427 1429 1431 1433 1435 1438 1441 1444 1447 1449 1453 1455 1458 1459 1461 1462 1463 1464 1465 1465 1466 1467 1468 1468 1469 1469 1470 1471 1471 1472 1472 1472 1472 1472 1472 1472 1472 1472 1471 1471 1470 1469 1469 1468 1467 1467 1466 1465 1465 1464 1464 1463 1462 1461 1460 1460 1459 1458 1457 1457 1456 1455 1455 1454 1453 1453
1426 1427 1428 1429 1430 1432 1434 1437 1440 1443 1445 1448 1451 1454 1456 1457 1459 1460 1462 1463 1464 1464 1465 1466 1466 1467 1468 1468 1469 1470 1470 1471 1471 1471 1471 1471 1471 1471 1471 1471 1470 1470 1469 1469 1468 1467 1467 1466 1465 1464 1464 1463 1463 1462 1461 1460 1460 1459 1458 1457 1457 1456 1455 1455 1454 1454 1453 1453 1452
1427 1428 1429 1430 1431 1433 1436 1438 1441 1444 1447 1450 1452 1454 1455 1457 1459 1460 1462 1463 1463 1464 1465 1465 1466 1467 1468 1468 1469 1469 1470 1470 1470 1471 1471 1471 1470 1470 1470 1469 1469 1468 1468 1467 1467 1466 1465 1465 1464 1463 1462 1462 1461 1460 1460 1459 1458 1457 1457 1456 1455 1455 1454 1454 1453 1453 1452 1451 1451
1426 1428 1429 1431 1433 1435 1438 1440 1443 1446 1449 1451 1453 1454 1456 1457 1459 1460 1461 1462 1463 1464 1465 1465 1466 1467 1467 1468 1468 1468 1469 1469 1470 1470 1470 1470 1470 1469 1469 1468 1468 1467 1467 1466 1465 1465 1464 1463 1463 1462 1461 1460 1459 1459 1458 1458 1457 1456 1455 1455 1454 1453 1453 1453 1452 1451 1451 1450 1450
1426 1429 1431 1434 1436 1438 1441 1443 1446 1448 1450 1452 1453 1455 1456 1458 1459 1460 1461 1462 1463 1464 1465 1465 1466 1466 1467 1467 1468 1468 1468 1469 1469 1469 1469 1469 1469 1468 1468 1468 1467 1466 1466 1465 1464 1463 1463 1462 1461 1460 1459 1458 1458 1458 1457 1456 1455 1455 1454 1453 1453 1452 1452 1451 1451 1450 1450 1449 1448
Wind_Speed
49 49 49 48 48 47 46 45 44 44 43 42 42 41 40 39 38 38 39 40 40 40 41 40 39 38 35 32 30 29 29 29 28 27 25 23 21 19 17 14 11 8 7 6 6 6 6 5 3 3 3 3 3 4 4 3 3 4 4 5 6 6 7 7 7 8 8 9 9
48 49 49 48 48 47 46 45 44 44 43 42 41 39 38 37 36 36 38 39 39 39 39 39 38 37 34 32 31 31 31 30 29 27 26 24 22 20 17 13 11 10 9 9 9 8 6 5 3 3 3 3 4 4 4 3 3 4 5 5 6 6 7 7 8 8 9 9 10
48 48 48 48 48 47 46 45 44 43 43 41 40 38 37 36 35 36 37 37 37 37 37 38 38 36 34 32 32 32 31 30 29 28 26 25 22 19 16 14 13 12 12 11 9 8 6 4 3 3 3 3 4 4 4 4 4 4 5 6 6 6 7 7 7 8 9 9 10
47 48 48 48 48 47 46 45 44 43 42 41 40 38 36 35 35 35 35 35 35 36 37 38 38 36 34 33 33 32 31 30 29 28 27 25 22 19 16 15 14 14 13 11 9 7 5 4 3 3 3 3 3 4 4 4 5 5 5 6 6 6 7 7 8 8 9 9 10
46 47 47 48 48 47 46 45 44 43 42 41 40 37 35 34 34 34 35 35 34 36 37 39 38 36 35 34 34 33 32 31 30 28 26 24 21 18 17 16 15 14 12 10 8 6 4 3 3 3 3 3 3 4 4 4 5 5 6 6 6 6 7 7 8 8 9 10 10
45 46 47 47 47 46 46 45 44 43 42 41 39 36 35 34 34 34 34 34 34 36 38 39 38 37 36 35 35 34 33 32 30 28 25 23 20 18 17 17 16 14 12 10 7 5 4 3 3 3 3 3 3 4 4 4 5 5 6 6 6 6 7 8 8 9 9 10 11
44 45 46 47 46 46 45 45 44 43 42 40 37 35 34 33 33 33 33 32 34 37 39 40 39 38 37 37 36 35 34 33 30 28 25 22 20 19 18 17 15 13 11 9 7 5 4 3 3 3 3 3 3 4 4 4 5 5 6 6 6 7 7 8 9 9 10 10 11
43 45 46 46 46 46 45 45 44 42 40 38 35 33 32 32 32 32 32 32 35 39 41 40 39 39 39 38 37 36 35 33 30 27 25 22 20 20 19 17 15 12 10 8 6 5 4 3 3 3 3 3 3 4 4 5 5 6 6 7 7 7 8 8 9 9 10 11 12
44 45 45 45 45 45 45 44 43 41 38 35 33 32 32 32 31 31 31 33 37 40 41 41 40 40 40 39 38 37 35 32 29 26 24 22 22 21 19 16 14 11 9 7 6 5 4 3 2 2 2 3 3 4 5 5 6 6 7 7 8 8 9 9 9 10 10 11 12
44 45 45 45 45 45 44 42 40 37 35 33 32 31 31 31 31 31 32 34 38 41 42 42 42 41 40 39 37 36 34 31 28 26 24 23 22 20 17 15 13 11 8 7 5 4 3 3 3 2 3 3 3 4 5 5 6 7 7 8 8 9 9 10 10 11 11 12 12
44 45 45 44 44 44 42 39 37 35 33 31 31 31 31 31 31 32 33 36 40 43 44 43 42 41 40 38 36 34 32 29 27 26 25 24 21 18 15 14 12 10 8 6 5 4 3 3 3 3 3 3 4 4 5 6 6 7 7 8 8 9 10 10 11 11 12 12 13
44 45 44 44 44 43 40 37 35 33 32 31 31 31 31 31 32 33 35 38 42 44 44 43 41 40 39 37 35 32 30 28 27 26 25 23 19 17 15 13 11 9 7 6 4 3 3 3 3 3 4 4 4 5 5 6 6 7 8 8 8 9 10 10 11 12 12 13 13
45 44 44 44 43 40 37 35 34 33 32 32 31 31 32 32 33 34 37 40 43 44 43 42 40 39 37 35 33 31 29 28 27 26 24 21 18 17 15 12 10 8 7 6 4 3 3 3 3 3 4 5 5 5 6 6 7 7 8 8 9 9 10 11 11 12 13 13 14
45 44 44 44 41 38 35 34 33 33 32 32 32 32 32 33 34 36 38 41 43 44 43 42 40 38 36 34 32 30 29 28 27 25 22 20 18 16 14 12 10 8 7 6 4 3 3 3 3 4 4 5 6 6 6 7 7 7 8 9 9 10 10 11 12 12 13 13 14
45 44 44 42 39 36 35 34 34 34 33 32 32 33 33 34 35 36 39 42 43 43 42 42 40 37 35 33 31 30 29 28 25 23 21 19 17 15 13 11 9 8 6 5 4 4 3 3 4 4 5 6 6 7 7 7 7 8 8 9 10 10 11 12 12 13 13 14 14
45 44 42 39 37 35 35 35 34 34 33 33 33 33 34 35 36 37 40 42 43 43 42 41 39 37 35 33 31 30 28 26 24 22 20 18 16 14 12 10 9 7 6 5 4 4 3 3 4 5 5 6 7 7 7 8 8 8 9 10 10 11 11 12 13 13 14 14 15
43 41 39 37 36 35 35 35 34 34 33 33 34 34 34 35 36 38 40 42 43 43 42 40 38 36 35 34 32 29 27 25 23 21 19 17 15 13 11 10 8 7 6 5 4 4 4 4 4 5 6 6 7 7 8 8 9 9 10 10 11 11 12 13 13 14 15 15 16
40 38 36 35 35 35 35 35 34 34 34 34 34 34 34 35 36 38 40 42 42 42 41 39 37 36 35 33 31 28 26 24 23 21 18 15 13 12 10 9 8 6 5 5 4 4 4 4 5 6 6 7 7 8 8 9 9 10 10 11 11 12 12 13 14 15 15 16 16
37 36 34 34 34 34 34 34 34 34 34 33 34 34 34 35 35 37 39 40 41 41 40 38 37 36 34 32 30 27 25 24 22 19 17 15 13 11 10 9 7 6 5 5 4 4 4 5 5 6 6 7 7 8 8 9 9 10 10 11 11 12 13 14 14 15 16 16 17
35 34 34 34 34 34 34 34 33 33 33 33 34 34 34 34 34 36 38 39 40 39 38 37 36 35 33 30 29 27 25 23 20 18 16 14 13 11 10 8 7 6 5 5 4 4 5 5 6 6 7 7 8 8 9 9 10 10 11 11 12 13 13 14 15 16 16 17 18
34 34 34 34 34 34 33 33 33 33 33 33 34 33 33 33 33 35 36 38 38 38 36 35 35 33 31 30 28 26 24 22 19 17 15 14 12 11 9 8 7 6 5 4 4 5 5 5 6 6 7 8 8 9 9 10 10 11 11 12 13 13 14 15 15 16 17 17 18
33 33 34 34 34 34 33 33 32 32 33 33 33 32 31 31 32 34 36 37 37 36 35 34 33 32 30 29 27 25 23 21 19 16 15 13 11 10 8 7 6 5 5 5 5 5 5 6 6 7 7 8 8 9 9 10 10 11 12 13 13 14 14 15 16 16 17 18 18
33 34 34 34 34 34 33 33 33 33 33 33 32 31 31 32 33 35 36 37 37 36 35 34 32 30 29 27 25 23 22 20 18 16 14 12 11 9 7 6 5 5 5 5 5 5 6 6 7 7 8 8 9 9 10 10 11 12 12 13 14 14 14 15 16 16 17 18 18
34 35 35 35 34 34 34 34 34 34 34 33 31 31 32 34 36 37 38 38 37 36 35 34 32 29 27 25 23 21 19 18 17 15 14 12 10 8 6 5 5 5 5 5 6 6 6 7 7 8 8 9 9 10 10 11 12 12 13 13 14 14 15 15 16 17 17 18 18
35 35 35 35 35 34 34 34 34 34 33 32 31 31 34 37 39 39 39 39 38 37 36 33 30 28 25 23 21 19 17 16 15 13 12 10 8 7 6 5 5 5 5 6 6 6 6 7 7 8 9 9 10 10 11 12 12 13 13 14 14 15 15 16 16 17 17 18 18
35 35 35 35 35 35 35 35 34 34 32 31 31 33 37 39 41 41 40 39 38 37 34 31 28 26 24 22 20 18 17 15 13 12 10 8 7 6 5 5 5 5 6 6 6 7 7 7 8 8 9 10 10 11 11 12 13 13 14 14 15 16 16 17 17 18 18 18 18
35 35 35 35 35 35 34 34 33 32 31 31 33 36 40 42 42 41 40 39 37 35 32 28 26 25 23 21 20 18 17 15 13 10 8 7 6 5 5 5 6 6 6 6 7 7 7 8 8 9 9 10 10 11 12 12 13 14 14 15 16 16 17 18 18 18 19 18 18
34 35 35 35 34 34 33 32 32 31 31 33 36 40 42 42 42 40 39 37 35 32 30 27 26 24 23 21 19 17 15 13 12 10 8 6 6 5 6 6 6 6 6 7 7 7 8 8 9 10 10 10 11 11 12 13 14 14 15 16 16 17 18 18 19 19 19 18 17
34 34 34 34 34 33 32 31 30 31 32 35 39 42 42 42 41 39 38 36 33 31 29 27 26 24 22 20 18 16 14 12 10 9 8 6 6 6 6 6 7 7 7 7 7 8 8 9 9 10 11 11 12 12 13 14 14 15 15 16 17 18 18 19 19 19 18 17 16
33 33 33 33 32 31 30 30 30 31 34 37 40 42 41 40 39 38 36 34 32 30 28 27 25 23 21 18 16 14 13 11 10 8 7 6 5 6 6 7 7 7 7 7 7 8 8 9 10 11 11 12 13 13 14 14 15 16 16 17 18 18 19 19 19 18 18 17 15
32 32 32 32 31 31 30 30 31 33 36 39 40 40 40 39 37 36 34 32 31 29 27 25 23 21 19 17 15 13 12 10 9 7 6 5 5 5 6 6 6 6 6 7 7 8 9 9 10 11 12 13 13 14 14 15 16 16 17 18 18 18 19 18 18 18 17 16 15
32 32 31 31 31 31 31 32 33 36 38 39 39 39 38 37 36 34 32 30 29 27 25 23 21 19 17 15 13 12 10 8 7 5 4 4 4 5 5 5 5 6 6 7 8 8 9 10 11 12 13 13 14 14 15 16 16 17 17 18 18 18 18 17 17 17 16 15 14
32 31 32 32 32 33 33 34 36 38 39 39 39 38 37 35 34 32 30 29 27 25 23 21 19 17 15 13 12 10 8 6 5 4 4 4 4 5 5 4 5 6 7 7 8 9 10 11 12 12 13 14 14 15 16 16 17 17 18 18 18 17 17 16 16 15 15 14 14
32 32 32 33 34 35 36 37 38 39 40 39 38 36 35 34 32 31 29 27 25 23 21 19 17 15 13 11 9 7 5 4 4 4 4 4 5 4 4 4 5 6 7 8 9 10 11 12 13 13 14 15 15 16 16 17 17 17 17 17 17 16 16 15 15 15 14 14 14
32 33 34 35 36 37 38 39 39 40 39 38 37 35 33 32 31 29 28 26 24 21 19 17 15 13 10 8 6 5 4 3 4 4 4 5 5 5 4 5 6 7 8 8 10 11 12 12 13 14 15 15 16 16 16 17 17 17 17 16 16 15 15 15 14 14 14 14 14
33 34 36 37 38 39 39 40 39 39 38 37 35 34 33 31 29 28 26 24 21 19 17 15 12 10 8 6 4 4 4 4 4 4 4 4 5 5 5 6 6 7 8 9 10 11 12 13 14 15 15 16 16 16 16 16 16 16 16 16 15 15 15 14 14 13 14 14 15
33 35 36 38 39 39 40 39 39 38 36 35 34 33 32 30 28 26 23 21 18 16 14 12 9 7 5 4 4 4 4 4 4 4 4 4 5 5 6 7 7 8 9 10 11 12 13 14 15 16 16 16 16 16 16 16 16 16 16 15 15 15 15 14 14 14 14 15 15
33 34 35 37 38 39 39 38 37 36 35 34 34 32 31 29 26 23 20 17 15 13 11 8 6 5 4 4 4 4 4 4 3 3 3 4 5 6 7 8 8 9 10 10 11 12 13 14 15 16 17 17 16 16 16 16 16 15 15 15 15 14 14 14 14 14 14 15 16
32 33 35 37 38 38 38 37 36 35 35 34 33 30 28 25 22 19 16 14 12 10 8 6 5 4 4 4 4 4 4 3 2 2 3 4 5 6 7 8 9 10 10 11 12 13 13 14 15 16 17 17 17 16 16 16 15 15 15 15 14 14 14 14 14 14 15 16 17
33 34 36 37 37 37 36 35 34 34 33 31 29 26 23 20 18 16 14 12 10 7 5 4 4 4 5 5 4 4 3 2 2 3 4 5 6 6 7 8 9 10 11 11 12 13 14 14 15 16 17 17 17 16 16 16 15 15 14 14 14 14 13 14 14 15 15 16 16
34 34 34 34 34 33 33 33 32 31 29 26 24 21 19 16 14 13 11 9 7 5 4 4 5 5 5 4 3 3 2 3 3 4 4 5 6 6 7 8 9 10 11 11 12 13 14 14 15 16 17 17 17 16 16 15 15 14 14 13 13 13 13 13 13 14 14 14 14
Wind_Direction
218 219 220 221 221 222 223 224 225 226 226 226 226 227 227 226 225 225 225 224 222 220 218 215 212 207 202 196 191 186 183 183 185 187 187 187 184 181 179 178 180 184 190 202 215 225 231 234 230 220 218 226 237 244 251 264 281 292 295 295 295 296 297 298 299 302 304 307 309
218 219 220 221 222 222 223 224 225 226 227 228 229 229 230 229 228 227 226 225 222 219 216 212 208 202 196 192 187 184 183 184 185 186 186 185 184 183 184 188 194 203 212 218 220 221 221 219 213 208 211 224 236 244 253 269 285 290 289 288 290 293 295 296 299 303 306 309 312
218 219 220 221 221 222 223 224 225 226 227 228 229 229 230 230 229 228 226 224 221 217 213 208 203 197 191 186 184 183 183 185 185 185 185 185 185 187 191 197 206 214 218 217 214 210 207 203 200 202 209 221 236 247 258 274 284 285 282 282 286 290 292 294 298 303 305 308 310
219 219 220 221 222 223 224 225 227 228 228 229 229 228 228 228 228 227 225 221 217 213 209 204 198 192 186 183 181 182 183 185 186 186 186 186 189 192 198 204 210 213 212 206 201 197 195 194 195 199 207 218 231 245 259 272 280 281 280 282 287 290 292 295 298 300 302 303 306
219 220 221 221 222 223 225 226 228 229 229 230 229 227 226 226 226 224 222 218 214 209 204 199 192 187 183 181 181 182 184 185 186 187 188 190 193 197 201 204 206 204 199 193 191 190 190 192 195 199 204 214 226 240 256 270 277 279 283 287 291 293 295 295 297 298 298 300 304
220 220 221 221 222 223 224 226 227 229 230 230 228 226 226 225 225 223 220 216 211 204 199 193 188 183 180 180 181 183 184 185 186 188 191 194 196 198 199 199 198 193 188 184 184 185 187 192 197 203 211 221 232 245 259 272 277 282 285 288 292 294 295 294 294 295 298 300 304
221 221 220 220 221 222 223 225 227 228 229 229 228 227 227 227 226 223 219 215 208 200 194 189 185 181 179 181 183 184 185 185 186 189 194 196 197 196 195 194 190 185 180 179 179 180 183 189 201 209 221 238 249 261 271 280 284 286 286 286 290 291 291 290 292 295 298 301 306
221 221 220 220 221 222 223 225 226 227 227 227 226 227 228 228 226 222 218 212 204 197 192 187 184 181 181 183 185 186 186 186 188 190 193 194 193 192 190 188 184 180 177 176 176 178 181 189 202 217 236 258 269 276 282 288 289 289 287 287 289 290 289 290 292 296 299 303 307
218 219 219 219 220 221 223 225 226 226 225 225 225 227 228 227 224 220 215 209 202 196 191 187 184 183 183 185 186 186 187 188 189 189 190 190 189 188 186 183 179 177 176 175 175 178 184 193 208 228 251 271 276 280 285 289 288 287 288 289 290 291 292 293 296 299 302 305 308
216 217 217 218 219 220 222 224 224 224 224 224 224 225 225 224 221 218 213 207 200 195 190 186 185 184 185 186 186 186 187 188 188 187 186 186 185 183 181 178 177 176 174 175 176 178 184 197 218 238 259 273 275 276 280 283 283 284 286 288 290 291 293 296 299 302 305 307 310
217 217 217 217 218 220 221 222 222 222 221 221 223 223 222 219 217 213 209 203 198 193 189 187 185 185 185 185 185 185 186 186 185 185 184 183 181 179 176 176 176 176 175 176 176 178 185 204 227 248 261 271 274 274 276 279 280 282 283 284 286 289 293 297 301 304 307 310 312
216 216 216 217 217 218 220 221 220 218 217 218 220 220 218 215 212 208 204 200 195 191 188 187 185 185 184 183 184 184 184 184 184 184 183 181 177 175 174 176 177 177 177 178 178 181 194 212 236 256 267 272 276 276 276 278 279 281 281 282 285 289 293 298 302 305 309 312 314
214 214 215 215 216 217 218 218 216 215 214 216 216 216 213 210 208 205 201 197 193 190 188 186 185 184 183 183 183 183 184 183 184 183 181 176 173 173 175 177 177 177 178 179 183 191 204 223 243 261 272 277 279 280 280 280 279 281 283 286 290 294 297 301 304 308 311 314 316
212 213 213 212 213 215 216 215 213 213 213 213 213 212 209 207 204 202 199 195 192 189 187 185 184 183 183 182 183 183 183 183 182 179 175 172 172 174 176 176 176 177 178 182 189 201 217 233 252 267 277 282 282 283 284 283 283 285 288 292 296 299 301 304 307 310 313 315 316
210 211 211 211 211 212 212 211 210 210 210 210 210 209 207 205 202 200 197 194 191 190 187 184 182 182 182 182 183 183 183 181 177 173 170 171 173 175 176 176 176 177 180 187 198 212 228 244 260 274 282 285 286 287 288 288 288 290 293 296 299 301 304 306 309 312 314 315 316
208 209 210 210 209 208 207 207 207 208 208 208 208 208 206 203 201 198 195 193 192 190 188 184 181 180 180 181 182 182 180 176 172 170 171 173 174 175 176 177 178 180 185 194 207 222 239 256 270 280 284 287 287 288 289 290 292 294 296 298 301 303 306 309 311 313 315 316 316
208 208 208 207 205 204 203 204 205 206 206 207 207 206 205 202 199 196 194 193 192 190 187 183 180 178 178 179 180 178 174 171 170 172 174 175 175 175 177 178 181 184 192 202 215 229 244 262 276 283 285 286 286 287 288 290 292 294 297 299 302 306 309 312 314 316 316 317 317
209 207 204 202 200 200 201 203 204 205 205 205 205 205 203 201 198 195 193 193 193 189 184 179 177 177 177 176 175 172 170 170 172 174 175 175 175 177 178 181 185 191 199 210 221 234 250 265 276 281 282 283 283 284 286 288 290 293 296 300 304 308 312 314 315 317 317 318 317
204 201 198 196 197 198 200 202 204 204 204 204 204 202 200 198 196 194 193 193 191 186 180 175 174 175 174 172 170 170 171 173 174 175 175 175 176 179 181 185 190 198 206 214 225 241 258 269 273 276 276 278 280 282 284 286 289 293 297 302 306 310 313 315 316 317 317 317 316
195 193 193 194 195 197 199 201 202 202 202 202 200 198 196 194 194 193 192 190 186 180 175 172 172 172 171 169 169 170 173 175 175 175 175 176 178 180 184 190 197 204 210 220 235 250 263 269 271 273 275 277 279 282 285 289 292 297 302 306 309 312 314 315 316 316 316 315 314
189 189 190 192 194 195 197 198 199 199 198 197 196 193 191 191 190 190 188 184 179 174 171 171 170 170 170 170 170 172 174 175 176 176 176 177 179 183 188 194 201 207 218 232 247 257 264 268 271 275 278 280 282 286 289 294 298 303 307 311 313 314 315 315 315 314 314 312 311
187 188 189 190 191 192 193 194 195 195 194 193 191 189 187 187 186 183 180 175 171 170 170 171 171 171 171 172 173 174 175 175 175 175 176 179 182 186 190 196 204 215 229 241 250 259 266 271 275 279 282 284 287 291 295 300 304 308 311 313 314 315 315 314 313 312 311 309 307
186 187 187 187 188 189 190 191 192 192 191 189 187 185 184 183 179 175 171 169 168 169 171 172 173 174 174 175 176 176 175 174 174 175 177 181 184 188 191 197 209 224 236 244 252 260 266 273 278 282 286 288 292 296 300 304 308 310 312 313 313 313 313 312 310 309 307 305 303
185 185 185 185 186 187 189 190 191 190 189 186 184 183 181 177 172 169 167 168 169 171 173 174 175 176 176 177 177 177 176 175 174 175 178 182 185 188 192 202 217 230 240 248 255 262 267 273 278 284 289 292 297 300 304 307 309 310 311 311 311 310 309 308 307 306 304 302 299
183 183 183 183 185 187 189 190 190 189 187 184 183 180 176 171 167 166 167 169 172 174 175 176 176 176 176 176 177 177 177 176 177 178 180 182 184 188 196 210 224 235 244 251 256 261 268 275 281 287 292 296 299 302 305 306 308 309 309 309 308 308 307 306 306 304 302 299 296
181 181 182 183 186 188 189 190 189 187 185 183 181 176 171 168 166 167 169 172 174 175 176 176 176 175 175 175 176 176 177 178 180 181 181 181 182 190 202 217 228 238 245 252 257 264 271 278 284 290 294 297 299 301 304 305 307 307 308 308 307 307 307 307 306 304 302 299 295
180 180 182 184 186 187 188 188 187 185 183 181 177 172 169 167 168 169 171 173 174 174 175 175 174 174 174 175 175 176 177 178 179 180 179 178 182 193 208 221 231 240 247 254 261 268 275 281 287 290 293 295 298 300 303 305 306 307 308 307 307 307 307 307 306 304 302 298 295
179 180 182 184 185 186 186 185 184 183 181 178 173 170 168 168 169 170 172 173 173 173 173 173 173 174 174 175 175 177 178 178 179 177 175 176 185 198 213 224 234 243 251 259 266 273 280 285 289 291 293 295 299 302 304 306 307 308 309 308 308 308 308 307 306 304 302 298 294
180 181 183 183 184 184 183 182 181 180 177 174 171 169 168 168 169 171 172 172 172 171 171 172 173 173 174 174 175 176 178 178 178 176 175 179 189 205 221 233 241 250 258 266 273 280 285 288 290 293 296 299 303 305 307 309 310 310 310 309 309 309 308 307 306 304 301 297 293
180 182 182 182 182 181 180 179 177 175 173 171 169 169 168 169 169 171 171 171 171 171 171 172 172 173 173 174 175 176 177 179 179 180 182 190 202 218 232 245 253 260 267 274 280 284 287 290 293 297 301 304 307 309 310 311 311 311 311 310 309 309 308 307 305 302 299 295 292
179 181 181 180 178 177 175 174 173 172 170 169 169 169 169 169 170 170 170 170 169 170 171 172 172 172 172 173 175 177 179 182 185 189 196 209 224 235 245 255 263 270 276 281 284 286 289 293 297 301 304 307 310 311 312 312 312 312 311 310 310 309 308 307 304 300 296 293 292
178 179 178 176 174 172 171 171 170 169 168 168 168 168 169 169 169 169 168 168 168 169 170 170 171 171 173 174 177 180 185 190 196 205 218 233 242 248 254 262 269 276 281 284 286 290 294 298 302 304 307 309 312 313 313 313 312 311 310 310 310 309 308 306 302 298 294 291 290
175 175 173 171 169 168 168 168 168 167 167 167 168 168 168 168 168 167 167 167 168 168 168 169 171 172 174 177 180 185 191 200 213 229 244 250 251 254 259 266 271 278 283 286 290 296 299 302 305 307 310 312 313 314 313 312 311 311 310 310 310 309 307 303 300 296 293 290 288
172 171 169 168 166 165 166 166 167 166 166 167 167 167 167 166 166 165 165 166 167 167 168 169 170 173 175 179 183 190 200 216 237 250 255 257 261 265 267 267 273 279 286 291 297 301 304 306 308 310 312 313 314 314 313 312 311 310 310 310 310 308 305 301 297 294 291 289 287
170 168 166 165 164 165 165 166 166 166 166 166 166 166 165 165 164 164 164 165 166 166 167 168 171 174 177 182 187 197 212 231 243 251 257 263 272 278 278 274 279 286 293 298 302 305 308 309 311 312 313 314 314 313 312 311 310 310 310 311 310 307 303 299 295 292 289 288 286
167 165 163 163 163 165 165 166 165 165 165 165 164 164 163 163 163 163 164 165 166 167 168 169 172 175 179 185 197 210 220 230 239 249 261 274 283 286 285 283 289 296 301 305 308 310 312 312 313 313 313 313 313 312 312 311 311 311 311 312 310 307 302 297 292 288 286 285 284
162 161 161 161 163 164 165 165 164 164 163 163 162 162 162 162 162 162 163 165 167 169 170 171 172 175 182 194 207 215 222 231 246 261 274 282 286 288 290 294 300 305 308 311 313 314 314 313 313 312 312 313 313 313 314 314 314 313 313 312 310 307 303 298 292 286 282 281 282
158 159 159 160 162 163 163 163 163 162 161 161 160 160 160 160 160 160 161 165 168 169 170 170 171 177 191 207 216 222 230 244 260 273 280 280 283 290 297 304 308 312 314 315 316 315 314 313 313 313 313 314 315 316 317 316 316 315 314 313 310 307 302 299 294 288 283 281 282
155 156 158 159 160 161 161 161 160 160 159 158 157 157 157 158 157 157 159 162 166 167 168 170 177 192 210 221 229 235 241 250 260 263 267 273 284 294 304 310 314 316 317 317 316 315 315 314 314 314 315 317 318 319 319 319 318 317 315 313 310 306 302 298 296 293 290 288 288
156 157 158 158 158 158 157 157 156 156 155 155 154 154 155 156 157 157 158 159 161 164 170 183 201 219 232 238 242 246 247 239 238 249 261 274 287 298 307 313 316 317 317 317 317 316 316 317 317 317 318 319 320 321 321 320 319 317 316 313 311 307 302 299 298 297 297 296 296
158 158 157 155 154 152 152 151 152 152 153 153 153 154 155 156 157 157 157 158 162 171 190 210 226 236 242 245 246 246 242 237 241 255 269 282 292 301 308 313 314 315 316 316 317 319 319 320 320 319 319 320 321 321 321 320 320 318 316 314 311 308 306 303 302 302 303 303 302